| time (UTC) | temp F | wind direction | speed knots | gust knots | rain 1hr in | rain 24hr in | rain mn in | humidity % | barometer mb |
| 20260506002216 | 80 | 65 | 2.6 | 5.2 | 0.00 | 0.00 | 0.00 | 30 | 1011.4 |
| 20260506001731 | 80 | 37 | 2.6 | 5.2 | 0.00 | 0.00 | 0.00 | 30 | 1011.4 |
| 20260506001223 | 80 | 87 | 1.7 | 5.2 | 0.00 | 0.00 | 0.00 | 30 | 1011.3 |
| 20260506000717 | 80 | 84 | 0.9 | 6.1 | 0.00 | 0.00 | 0.00 | 30 | 1011.3 |
| 20260506000232 | 80 | 110 | 4.3 | 6.1 | 0.00 | 0.00 | 0.00 | 31 | 1011.3 |
| 20260505235725 | 80 | 83 | 2.6 | 7.8 | 0.00 | 0.00 | 0.00 | 29 | 1011.4 |
| 20260505235220 | 80 | 71 | 1.7 | 7.0 | 0.00 | 0.00 | 0.00 | 30 | 1011.4 |
| 20260505234733 | 80 | 48 | 2.6 | 7.0 | 0.00 | 0.00 | 0.00 | 29 | 1011.4 |
| 20260505234227 | 79 | 57 | 1.7 | 7.8 | 0.00 | 0.00 | 0.00 | 29 | 1011.4 |
| 20260505233720 | 80 | 20 | 4.3 | 7.8 | 0.00 | 0.00 | 0.00 | 29 | 1011.4 |
| 20260505233233 | 80 | 102 | 3.5 | 7.8 | 0.00 | 0.00 | 0.00 | 28 | 1011.4 |
| 20260505232728 | 80 | 114 | 1.7 | 7.8 | 0.00 | 0.00 | 0.00 | 28 | 1011.4 |
| 20260505232219 | 80 | 94 | 3.5 | 7.8 | 0.00 | 0.00 | 0.00 | 28 | 1011.4 |
| 20260505231717 | 80 | 341 | 1.7 | 7.0 | 0.00 | 0.00 | 0.00 | 29 | 1011.6 |
| 20260505231230 | 80 | 79 | 1.7 | 7.8 | 0.00 | 0.00 | 0.00 | 29 | 1011.6 |
| 20260505230723 | 80 | 86 | 5.2 | 7.8 | 0.00 | 0.00 | 0.00 | 28 | 1011.5 |
| 20260505230216 | 81 | 78 | 1.7 | 4.3 | 0.00 | 0.00 | 0.00 | 28 | 1011.7 |
| 20260505225730 | 81 | 94 | 1.7 | 5.2 | 0.00 | 0.00 | 0.00 | 27 | 1011.6 |
| 20260505225223 | 80 | 144 | 2.6 | 5.2 | 0.00 | 0.00 | 0.00 | 28 | 1011.7 |
| 20260505224717 | 81 | 102 | 2.6 | 6.1 | 0.00 | 0.00 | 0.00 | 27 | 1011.7 |
| 20260505224232 | 81 | 88 | 2.6 | 7.0 | 0.00 | 0.00 | 0.00 | 28 | 1011.7 |
| 20260505223727 | 81 | 123 | 3.5 | 7.0 | 0.00 | 0.00 | 0.00 | 28 | 1011.8 |
| 20260505223221 | 81 | 76 | 3.5 | 7.0 | 0.00 | 0.00 | 0.00 | 27 | 1011.8 |
| 20260505222735 | 80 | 69 | 1.7 | 5.2 | 0.00 | 0.00 | 0.00 | 29 | 1011.7 |
| 20260505222228 | 80 | 113 | 2.6 | 7.0 | 0.00 | 0.00 | 0.00 | 29 | 1011.8 |
| 20260505221721 | 80 | 66 | 2.6 | 7.0 | 0.00 | 0.00 | 0.00 | 29 | 1011.8 |
| 20260505215721 | 80 | 126 | 3.5 | 8.7 | 0.00 | 0.00 | 0.00 | 29 | 1012.0 |
| 20260505215219 | 81 | 102 | 2.6 | 5.2 | 0.00 | 0.00 | 0.00 | 29 | 1011.9 |
| 20260505214734 | 80 | 143 | 3.5 | 7.0 | 0.00 | 0.00 | 0.00 | 29 | 1011.8 |
| 20260505214225 | 79 | 130 | 2.6 | 7.0 | 0.00 | 0.00 | 0.00 | 30 | 1012.0 |
| 20260505212728 | 79 | 154 | 3.5 | 7.0 | 0.00 | 0.00 | 0.00 | 31 | 1012.1 |
| 20260505212221 | 79 | 104 | 4.3 | 8.7 | 0.00 | 0.00 | 0.00 | 30 | 1012.1 |
| 20260505211734 | 78 | 83 | 0.9 | 8.7 | 0.00 | 0.00 | 0.00 | 29 | 1012.1 |
| 20260505211227 | 79 | 109 | 3.5 | 7.0 | 0.00 | 0.00 | 0.00 | 31 | 1012.2 |
| 20260505210724 | 79 | 95 | 2.6 | 6.1 | 0.00 | 0.00 | 0.00 | 31 | 1012.1 |
| 20260505210217 | 79 | 111 | 2.6 | 7.8 | 0.00 | 0.00 | 0.00 | 31 | 1012.1 |
| 20260505205732 | 79 | 121 | 2.6 | 7.8 | 0.00 | 0.00 | 0.00 | 32 | 1012.2 |
| 20260505205225 | 78 | 84 | 1.7 | 6.1 | 0.00 | 0.00 | 0.00 | 32 | 1012.1 |
| 20260505203730 | 78 | 104 | 2.6 | 10.4 | 0.00 | 0.00 | 0.00 | 33 | 1012.3 |
| 20260505203223 | 78 | 104 | 1.7 | 10.4 | 0.00 | 0.00 | 0.00 | 32 | 1012.3 |
| 20260505202716 | 78 | 116 | 2.6 | 7.0 | 0.00 | 0.00 | 0.00 | 34 | 1012.2 |
| 20260505202235 | 77 | 72 | 3.5 | 7.8 | 0.00 | 0.00 | 0.00 | 33 | 1012.3 |
| 20260505201728 | 77 | 29 | 1.7 | 6.1 | 0.00 | 0.00 | 0.00 | 33 | 1012.4 |
| 20260505201222 | 77 | 85 | 1.7 | 8.7 | 0.00 | 0.00 | 0.00 | 34 | 1012.5 |
| 20260505200736 | 76 | 76 | 1.7 | 8.7 | 0.00 | 0.00 | 0.00 | 34 | 1012.5 |
| 20260505195723 | 76 | 111 | 1.7 | 7.0 | 0.00 | 0.00 | 0.00 | 34 | 1012.6 |
| 20260505194731 | 76 | 50 | 1.7 | 8.7 | 0.00 | 0.00 | 0.00 | 35 | 1012.7 |
| 20260505194227 | 76 | 124 | 3.5 | 8.7 | 0.00 | 0.00 | 0.00 | 35 | 1012.6 |
| 20260505193216 | 75 | 71 | 2.6 | 4.3 | 0.00 | 0.00 | 0.00 | 35 | 1012.7 |
| 20260505192731 | 75 | 95 | 1.7 | 4.3 | 0.00 | 0.00 | 0.00 | 35 | 1012.8 |
| 20260505192224 | 75 | 95 | 1.7 | 5.2 | 0.00 | 0.00 | 0.00 | 37 | 1012.8 |
| 20260505191718 | 74 | 99 | 2.6 | 5.2 | 0.00 | 0.00 | 0.00 | 35 | 1012.8 |
| 20260505190728 | 74 | 123 | 1.7 | 5.2 | 0.00 | 0.00 | 0.00 | 37 | 1012.7 |
| 20260505185721 | 74 | 17 | 0.0 | 5.2 | 0.00 | 0.00 | 0.00 | 37 | 1012.9 |
| 20260505184226 | 72 | 108 | 0.9 | 4.3 | 0.00 | 0.00 | 0.00 | 39 | 1012.9 |
| 20260505183719 | 72 | 42 | 0.9 | 4.3 | 0.00 | 0.00 | 0.00 | 41 | 1012.9 |
| 20260505183233 | 72 | 105 | 0.0 | 5.2 | 0.00 | 0.00 | 0.00 | 41 | 1012.9 |
| 20260505182727 | 71 | 105 | 1.7 | 5.2 | 0.00 | 0.00 | 0.00 | 40 | 1012.9 |
| 20260505182219 | 71 | 118 | 0.0 | 5.2 | 0.00 | 0.00 | 0.00 | 40 | 1012.9 |
| 20260505181733 | 72 | 107 | 1.7 | 5.2 | 0.00 | 0.00 | 0.00 | 41 | 1012.9 |
| 20260505181231 | 71 | 97 | 0.0 | 0.9 | 0.00 | 0.00 | 0.00 | 41 | 1012.8 |
| 20260505175228 | 69 | 51 | 0.0 | 4.3 | 0.00 | 0.00 | 0.00 | 45 | 1012.9 |
| 20260505174216 | 68 | 116 | 0.0 | 3.5 | 0.00 | 0.00 | 0.00 | 44 | 1013.0 |
| 20260505173731 | 68 | 114 | 0.9 | 3.5 | 0.00 | 0.00 | 0.00 | 44 | 1013.0 |
| 20260505173224 | 68 | 122 | 0.0 | 3.5 | 0.00 | 0.00 | 0.00 | 44 | 1012.9 |
| 20260505172717 | 68 | 104 | 0.0 | 3.5 | 0.00 | 0.00 | 0.00 | 45 | 1012.9 |
| 20260505172235 | 67 | 102 | 0.0 | 0.9 | 0.00 | 0.00 | 0.00 | 45 | 1012.9 |
| 20260505171727 | 66 | 101 | 0.0 | 0.0 | 0.00 | 0.00 | 0.00 | 47 | 1012.9 |
| 20260505163224 | 63 | 178 | 0.0 | 0.0 | 0.00 | 0.00 | 0.00 | 55 | 1013.1 |
| 20260505162716 | 62 | 173 | 0.0 | 0.9 | 0.00 | 0.00 | 0.00 | 56 | 1013.1 |
| 20260505162233 | 62 | 242 | 0.0 | 0.9 | 0.00 | 0.00 | 0.00 | 55 | 1013.1 |
| 20260505161222 | 61 | 138 | 0.0 | 0.9 | 0.00 | 0.00 | 0.00 | 58 | 1013.2 |
| 20260505160716 | 61 | 168 | 0.0 | 3.5 | 0.00 | 0.00 | 0.00 | 58 | 1013.2 |
| 20260505160229 | 60 | 213 | 1.7 | 3.5 | 0.00 | 0.00 | 0.00 | 57 | 1013.1 |
| 20260505153233 | 56 | 194 | 0.0 | 0.0 | 0.00 | 0.00 | 0.00 | 61 | 1013.2 |
| 20260505152727 | 55 | 252 | 0.0 | 0.9 | 0.00 | 0.00 | 0.00 | 60 | 1013.2 |
| 20260505152221 | 55 | 265 | 0.0 | 2.6 | 0.00 | 0.00 | 0.00 | 59 | 1013.1 |
| 20260505151735 | 55 | 235 | 0.0 | 1.7 | 0.00 | 0.00 | 0.00 | 59 | 1013.1 |
| 20260505151229 | 55 | 269 | 0.0 | 1.7 | 0.00 | 0.00 | 0.00 | 61 | 1013.1 |
| 20260505150720 | 56 | 173 | 0.0 | 0.9 | 0.00 | 0.00 | 0.00 | 61 | 1013.1 |
| 20260505150217 | 55 | 146 | 0.0 | 0.9 | 0.00 | 0.00 | 0.00 | 60 | 1013.0 |
| 20260505140221 | 49 | 236 | 0.0 | 0.0 | 0.00 | 0.00 | 0.00 | 69 | 1012.4 |
| 20260505130219 | 44 | 187 | 0.0 | 1.7 | 0.00 | 0.00 | 0.00 | 75 | 1011.7 |
| 20260505124722 | 44 | 270 | 0.0 | 0.9 | 0.00 | 0.00 | 0.00 | 75 | 1011.7 |
| 20260505124216 | 45 | 268 | 0.0 | 2.6 | 0.00 | 0.00 | 0.00 | 75 | 1011.6 |
| 20260505123731 | 44 | 216 | 1.7 | 2.6 | 0.00 | 0.00 | 0.00 | 76 | 1011.7 |
| 20260505123224 | 44 | 206 | 0.0 | 1.7 | 0.00 | 0.00 | 0.00 | 76 | 1011.6 |
| 20260505122718 | 44 | 215 | 0.9 | 1.7 | 0.00 | 0.00 | 0.00 | 77 | 1011.4 |
| 20260505122231 | 44 | 219 | 0.9 | 1.7 | 0.00 | 0.00 | 0.00 | 76 | 1011.4 |
| 20260505121724 | 45 | 174 | 0.9 | 1.7 | 0.00 | 0.00 | 0.00 | 75 | 1011.5 |
| 20260505121220 | 46 | 197 | 0.0 | 1.7 | 0.00 | 0.00 | 0.00 | 74 | 1011.4 |
| 20260505120733 | 46 | 197 | 0.0 | 1.7 | 0.00 | 0.00 | 0.00 | 74 | 1011.3 |
| 20260505120226 | 47 | 206 | 0.0 | 2.6 | 0.00 | 0.00 | 0.00 | 73 | 1011.2 |
| 20260505114730 | 47 | 258 | 0.0 | 0.0 | 0.00 | 0.00 | 0.00 | 71 | 1011.2 |
| 20260505114223 | 47 | 251 | 0.0 | 1.7 | 0.00 | 0.00 | 0.00 | 71 | 1011.2 |
| 20260505113717 | 47 | 256 | 0.0 | 2.6 | 0.00 | 0.00 | 0.00 | 70 | 1011.3 |
| 20260505113230 | 48 | 261 | 1.7 | 2.6 | 0.00 | 0.00 | 0.00 | 70 | 1011.4 |
| 20260505112726 | 48 | 263 | 0.9 | 1.7 | 0.00 | 0.00 | 0.00 | 70 | 1011.4 |
| 20260505111230 | 48 | 235 | 0.0 | 2.6 | 0.00 | 0.00 | 0.00 | 69 | 1011.3 |
| 20260505110723 | 49 | 249 | 1.7 | 2.6 | 0.00 | 0.00 | 0.00 | 68 | 1011.2 |
| 20260505110217 | 49 | 263 | 0.0 | 2.6 | 0.00 | 0.00 | 0.00 | 68 | 1011.2 |
| 20260505101723 | 50 | 256 | 2.6 | 4.3 | 0.00 | 0.00 | 0.00 | 68 | 1010.9 |
| 20260505101217 | 50 | 263 | 2.6 | 4.3 | 0.00 | 0.00 | 0.00 | 68 | 1011.0 |
| 20260505100734 | 50 | 264 | 2.6 | 5.2 | 0.00 | 0.00 | 0.00 | 67 | 1011.0 |
| 20260505100229 | 51 | 273 | 2.6 | 5.2 | 0.00 | 0.00 | 0.00 | 68 | 1010.9 |
| 20260505095721 | 51 | 274 | 0.0 | 0.0 | 0.00 | 0.00 | 0.00 | 68 | 1010.9 |
| 20260505095215 | 51 | 259 | 0.0 | 0.0 | 0.00 | 0.00 | 0.00 | 69 | 1010.9 |
| 20260505094224 | 51 | 185 | 0.0 | 0.0 | 0.00 | 0.00 | 0.00 | 68 | 1011.0 |
| 20260505093717 | 51 | 184 | 0.0 | 0.0 | 0.00 | 0.00 | 0.00 | 68 | 1011.0 |
| 20260505093231 | 52 | 248 | 0.0 | 0.0 | 0.00 | 0.00 | 0.00 | 67 | 1011.0 |
| 20260505092729 | 52 | 206 | 0.0 | 0.0 | 0.00 | 0.00 | 0.00 | 67 | 1011.0 |
| 20260505092221 | 52 | 209 | 0.0 | 0.0 | 0.00 | 0.00 | 0.00 | 67 | 1011.0 |
| 20260505091715 | 52 | 232 | 0.0 | 0.0 | 0.00 | 0.00 | 0.00 | 66 | 1010.9 |
| 20260505091229 | 52 | 178 | 0.0 | 0.0 | 0.00 | 0.00 | 0.00 | 66 | 1010.9 |
| 20260505090723 | 53 | 260 | 0.0 | 0.9 | 0.00 | 0.00 | 0.00 | 64 | 1010.9 |
| 20260505090236 | 54 | 192 | 0.0 | 0.9 | 0.00 | 0.00 | 0.00 | 63 | 1010.9 |
| 20260505085729 | 54 | 284 | 0.0 | 0.0 | 0.00 | 0.00 | 0.00 | 62 | 1010.8 |
| 20260505085221 | 54 | 284 | 0.0 | 0.0 | 0.00 | 0.00 | 0.00 | 61 | 1010.8 |
| 20260505084719 | 54 | 286 | 0.0 | 0.0 | 0.00 | 0.00 | 0.00 | 61 | 1010.8 |
| 20260505084232 | 55 | 258 | 0.0 | 0.0 | 0.00 | 0.00 | 0.00 | 60 | 1010.8 |
| 20260505083221 | 55 | 331 | 0.0 | 0.0 | 0.00 | 0.00 | 0.00 | 60 | 1010.8 |
| 20260505082735 | 55 | 270 | 0.0 | 0.0 | 0.00 | 0.00 | 0.00 | 60 | 1010.8 |
| 20260505082230 | 55 | 256 | 0.0 | 0.0 | 0.00 | 0.00 | 0.00 | 61 | 1010.8 |
| 20260505081723 | 55 | 256 | 0.0 | 0.0 | 0.00 | 0.00 | 0.00 | 60 | 1010.8 |
| 20260505081216 | 55 | 256 | 0.0 | 0.0 | 0.00 | 0.00 | 0.00 | 60 | 1010.8 |
| 20260505080733 | 56 | 256 | 0.0 | 0.0 | 0.00 | 0.00 | 0.00 | 60 | 1010.9 |
| 20260505080226 | 56 | 256 | 0.0 | 0.0 | 0.00 | 0.00 | 0.00 | 60 | 1010.9 |
| 20260505075720 | 56 | 202 | 0.0 | 0.0 | 0.00 | 0.00 | 0.00 | 60 | 1010.9 |
| 20260505075234 | 56 | 202 | 0.0 | 0.0 | 0.00 | 0.00 | 0.00 | 59 | 1010.9 |
| 20260505074727 | 56 | 202 | 0.0 | 0.0 | 0.00 | 0.00 | 0.00 | 59 | 1010.9 |
| 20260505074221 | 57 | 202 | 0.0 | 0.0 | 0.00 | 0.00 | 0.00 | 59 | 1010.9 |
| 20260505073735 | 57 | 202 | 0.0 | 0.0 | 0.00 | 0.00 | 0.00 | 58 | 1010.8 |
| 20260505072726 | 58 | 356 | 0.0 | 0.0 | 0.00 | 0.00 | 0.00 | 56 | 1010.8 |
| 20260505071734 | 59 | 12 | 0.0 | 1.7 | 0.00 | 0.00 | 0.00 | 55 | 1010.7 |
| 20260505071230 | 59 | 332 | 0.0 | 0.9 | 0.00 | 0.00 | 0.00 | 55 | 1010.7 |
| 20260505070723 | 59 | 68 | 0.0 | 2.6 | 0.00 | 0.00 | 0.00 | 54 | 1010.6 |
| 20260505070216 | 60 | 26 | 0.9 | 6.1 | 0.00 | 0.00 | 0.00 | 54 | 1010.5 |
| 20260505065730 | 60 | 7 | 0.0 | 7.0 | 0.00 | 0.00 | 0.00 | 53 | 1010.5 |
| 20260505065224 | 60 | 20 | 2.6 | 6.1 | 0.00 | 0.00 | 0.00 | 53 | 1010.4 |
| 20260505064722 | 60 | 87 | 0.9 | 5.2 | 0.00 | 0.00 | 0.00 | 52 | 1010.4 |
| 20260505064216 | 61 | 351 | 1.7 | 5.2 | 0.00 | 0.00 | 0.00 | 52 | 1010.4 |
| 20260505063729 | 61 | 34 | 1.7 | 7.0 | 0.00 | 0.00 | 0.00 | 51 | 1010.4 |
| 20260505063222 | 61 | 55 | 3.5 | 8.7 | 0.00 | 0.00 | 0.00 | 50 | 1010.3 |
| 20260505062716 | 61 | 349 | 4.3 | 8.7 | 0.00 | 0.00 | 0.00 | 49 | 1010.3 |
| 20260505062229 | 61 | 19 | 2.6 | 6.1 | 0.00 | 0.00 | 0.00 | 49 | 1010.3 |
| 20260505061218 | 62 | 354 | 0.9 | 7.8 | 0.00 | 0.00 | 0.00 | 49 | 1010.4 |
| 20260505060715 | 62 | 346 | 2.6 | 7.8 | 0.00 | 0.00 | 0.00 | 48 | 1010.3 |
| 20260505060229 | 62 | 9 | 0.0 | 7.0 | 0.00 | 0.00 | 0.00 | 48 | 1010.4 |
| 20260505055722 | 62 | 20 | 3.5 | 7.0 | 0.00 | 0.00 | 0.00 | 48 | 1010.4 |
| 20260505055216 | 63 | 352 | 4.3 | 7.8 | 0.00 | 0.00 | 0.00 | 48 | 1010.4 |
| 20260505054729 | 63 | 348 | 4.3 | 7.8 | 0.00 | 0.00 | 0.00 | 48 | 1010.3 |
| 20260505054223 | 63 | 13 | 2.6 | 8.7 | 0.00 | 0.00 | 0.00 | 48 | 1010.3 |
| 20260505053717 | 63 | 315 | 4.3 | 8.7 | 0.00 | 0.00 | 0.00 | 48 | 1010.2 |
| 20260505053230 | 63 | 5 | 5.2 | 10.4 | 0.00 | 0.00 | 0.00 | 48 | 1010.1 |
| 20260505052727 | 63 | 323 | 5.2 | 10.4 | 0.00 | 0.00 | 0.00 | 48 | 1010.2 |
| 20260505052220 | 62 | 349 | 5.2 | 8.7 | 0.00 | 0.00 | 0.00 | 49 | 1010.1 |
| 20260505051734 | 62 | 10 | 1.7 | 5.2 | 0.00 | 0.00 | 0.00 | 50 | 1010.2 |
| 20260505051227 | 62 | 69 | 0.0 | 1.7 | 0.00 | 0.00 | 0.00 | 50 | 1010.2 |
| 20260505050720 | 62 | 342 | 0.0 | 1.7 | 0.00 | 0.00 | 0.00 | 49 | 1010.1 |
| 20260505050233 | 62 | 90 | 0.0 | 1.7 | 0.00 | 0.00 | 0.00 | 49 | 1010.2 |
| 20260505041215 | 66 | 358 | 5.2 | 7.0 | 0.00 | 0.00 | 0.00 | 42 | 1009.6 |
| 20260505035725 | 66 | 108 | 2.6 | 5.2 | 0.00 | 0.00 | 0.00 | 40 | 1009.4 |
| 20260505035219 | 67 | 102 | 0.9 | 4.3 | 0.00 | 0.00 | 0.00 | 40 | 1009.3 |
| 20260505034733 | 67 | 143 | 0.9 | 5.2 | 0.00 | 0.00 | 0.00 | 39 | 1009.2 |
| 20260505033216 | 68 | 85 | 0.9 | 3.5 | 0.00 | 0.00 | 0.00 | 35 | 1009.0 |
| 20260505032730 | 69 | 51 | 0.0 | 7.0 | 0.00 | 0.00 | 0.00 | 33 | 1008.9 |
| 20260505032224 | 70 | 20 | 0.9 | 7.0 | 0.00 | 0.00 | 0.00 | 27 | 1008.8 |
| 20260505031721 | 70 | 1 | 1.7 | 6.1 | 0.00 | 0.00 | 0.00 | 26 | 1008.8 |
| 20260505031214 | 70 | 353 | 2.6 | 5.2 | 0.00 | 0.00 | 0.00 | 26 | 1008.7 |
| 20260505030728 | 70 | 69 | 0.0 | 5.2 | 0.00 | 0.00 | 0.00 | 26 | 1008.6 |
| 20260505025716 | 71 | 91 | 1.7 | 5.2 | 0.00 | 0.00 | 0.00 | 25 | 1008.4 |
| 20260505025232 | 72 | 40 | 0.9 | 5.2 | 0.00 | 0.00 | 0.00 | 24 | 1008.3 |
| 20260505024725 | 73 | 46 | 0.9 | 9.6 | 0.00 | 0.00 | 0.00 | 24 | 1008.2 |
| 20260505024218 | 73 | 93 | 1.7 | 9.6 | 0.00 | 0.00 | 0.00 | 23 | 1008.1 |
| 20260505023715 | 74 | 97 | 2.6 | 4.3 | 0.00 | 0.00 | 0.00 | 23 | 1008.1 |
| 20260505023231 | 74 | 80 | 1.7 | 7.8 | 0.00 | 0.00 | 0.00 | 23 | 1008.1 |
| 20260505022221 | 75 | 56 | 2.6 | 5.2 | 0.00 | 0.00 | 0.00 | 23 | 1008.1 |
| 20260505021734 | 75 | 31 | 1.7 | 8.7 | 0.00 | 0.00 | 0.00 | 24 | 1008.0 |
| 20260505020721 | 75 | 72 | 1.7 | 8.7 | 0.00 | 0.00 | 0.00 | 24 | 1008.0 |
| 20260505020234 | 76 | 83 | 3.5 | 9.6 | 0.00 | 0.00 | 0.00 | 24 | 1008.0 |
| 20260505015729 | 76 | 119 | 3.5 | 9.6 | 0.00 | 0.00 | 0.00 | 23 | 1008.0 |
| 20260505015227 | 77 | 353 | 4.3 | 9.6 | 0.00 | 0.00 | 0.00 | 23 | 1007.9 |
| 20260505014720 | 77 | 13 | 1.7 | 6.1 | 0.00 | 0.00 | 0.00 | 25 | 1007.9 |
| 20260505014214 | 77 | 360 | 2.6 | 5.2 | 0.00 | 0.00 | 0.00 | 26 | 1007.9 |
| 20260505013730 | 77 | 89 | 2.6 | 7.0 | 0.00 | 0.00 | 0.00 | 26 | 1007.8 |
| 20260505013223 | 77 | 64 | 2.6 | 7.8 | 0.00 | 0.00 | 0.00 | 25 | 1007.9 |
| 20260505012716 | 77 | 62 | 3.5 | 10.4 | 0.00 | 0.00 | 0.00 | 25 | 1007.8 |
| 20260505012229 | 77 | 78 | 3.5 | 10.4 | 0.00 | 0.00 | 0.00 | 26 | 1007.9 |
| 20260505011729 | 77 | 57 | 3.5 | 9.6 | 0.00 | 0.00 | 0.00 | 26 | 1007.9 |
| 20260505011221 | 78 | 76 | 2.6 | 9.6 | 0.00 | 0.00 | 0.00 | 25 | 1007.9 |
| 20260505005223 | 78 | 76 | 2.6 | 9.6 | 0.00 | 0.00 | 0.00 | 25 | 1007.9 |
| 20260505004716 | 78 | 84 | 1.7 | 13.9 | 0.00 | 0.00 | 0.00 | 25 | 1007.9 |
| 20260505004231 | 79 | 112 | 6.1 | 13.9 | 0.00 | 0.00 | 0.00 | 24 | 1008.0 |
| 20260505003218 | 80 | 20 | 3.5 | 11.3 | 0.00 | 0.00 | 0.00 | 24 | 1008.0 |
| 20260505002715 | 80 | 109 | 2.6 | 10.4 | 0.00 | 0.00 | 0.00 | 24 | 1008.1 |